This demonstration page uses our WeatherBlox Daily Observations layout. Learn more.

40.92945, -100.16068

Hourly Observations for April 15, 2017

Temp ( °F °C ) Dew Point ( °F °C ) Humidity (%) Winds ( mph kmh ) Pressure ( in mb ) Visibility ( mi km ) Precip ( " mm )
12:15 am 00:15 Clear 68 20.2 57 13.9 67 67 S 12 19 29.62 1003 10 16.0934 0 0
12:35 am 00:35 Clear 68 20 57 13.8 68 68 S 12 19 29.62 1003 10 16.0934 0 0
12:55 am 00:55 Clear 67 19.7 57 13.8 69 69 S 12 19 29.62 1003 10 16.0934 0 0
1:15 am 01:15 Clear 66 19.1 57 13.8 72 72 S 12 19 29.59 1002 10 16.0934 0 0
1:35 am 01:35 Clear 66 18.9 57 13.7 72 72 WSW 3 6 29.62 1003 10 16.0934 0 0
1:55 am 01:55 Partly Cloudy 65 18.4 56 13.6 74 74 Calm 29.62 1003 10 16.0934 0 0
2:15 am 02:15 Partly Cloudy 64 17.9 56 13.5 76 76 SSE 8 13 29.62 1003 10 16.0934 0 0
2:35 am 02:35 Partly Cloudy 66 18.7 57 14 74 74 SE 13 20 29.62 1003 10 16.0934 0 0
2:55 am 02:55 Mostly Cloudy 65 18.6 57 14 75 75 SE 13 20 29.62 1003 10 16.0934 0 0
3:15 am 03:15 Partly Cloudy 64 18 57 14 78 78 SSE 12 19 29.62 1003 10 16.0934 0 0
3:35 am 03:35 Mostly Cloudy 63 17.3 57 13.8 80 80 SSE 12 19 29.62 1003 10 16.0934 0 0
3:55 am 03:55 Partly Cloudy 62 16.8 56 13.6 82 82 SSE 9 15 29.65 1004 10 16.0934 0 0
4:15 am 04:15 Clear 62 16.5 56 13.5 83 83 S 5 7 29.65 1004 10 16.0934 0 0
4:35 am 04:35 Mostly Cloudy 61 16 56 13.5 85 85 Calm 29.65 1004 10 16.0934 0 0
4:55 am 04:55 Cloudy 60 15.6 57 13.7 89 89 N 8 13 29.65 1004 10 16.0934 0 0
5:15 am 05:15 Cloudy 59 14.8 55 12.5 86 86 N 12 19 29.65 1004 10 16.0934 0 0
5:35 am 05:35 Partly Cloudy 57 14.1 55 12.5 90 90 NE 9 15 29.65 1004 10 16.0934 0 0
5:55 am 05:55 Mostly Cloudy 57 14 55 12.5 91 91 ENE 10 17 29.65 1004 10 16.0934 0 0
6:15 am 06:15 Partly Cloudy 56 13.5 54 12.1 91 91 ENE 7 11 29.65 1004 10 16.0934 0 0
6:35 am 06:35 Mostly Cloudy 56 13.5 55 12.5 94 94 NE 6 9 29.71 1006 10 16.0934 0 0
6:55 am 06:55 Cloudy 58 14.2 56 13.1 93 93 NNE 6 9 29.68 1005 10 16.0934 0 0
7:15 am 07:15 Cloudy 58 14.6 56 13.6 94 94 E 7 11 29.68 1005 7 11.26538 0 0
7:35 am 07:35 Mostly Cloudy 60 15.3 57 14.1 93 93 ESE 8 13 29.68 1005 10 16.0934 0 0
7:55 am 07:55 Partly Cloudy 60 15.6 57 14 90 90 ESE 8 13 29.68 1005 10 16.0934 0 0
8:15 am 08:15 Sunny 60 15.8 57 14 89 89 ESE 6 9 29.71 1006 10 16.0934 0 0
8:35 am 08:35 Sunny 62 16.5 57 14.1 86 86 E 6 9 29.71 1006 10 16.0934 0 0
8:55 am 08:55 Mostly Cloudy 62 16.8 58 14.2 85 85 ENE 5 7 29.71 1006 10 16.0934 0 0
9:15 am 09:15 Cloudy 62 16.7 58 14.2 85 85 Calm 29.74 1007 10 16.0934 0 0
9:35 am 09:35 Cloudy 62 16.9 57 14.1 84 84 Calm 29.74 1007 10 16.0934 0 0
9:55 am 09:55 Cloudy 63 17.3 58 14.3 83 83 W 9 15 29.74 1007 10 16.0934 0 0
10:15 am 10:15 Cloudy 64 17.7 58 14.5 82 82 WNW 10 17 29.74 1007 10 16.0934 0 0
10:35 am 10:35 Mostly Cloudy 65 18.6 59 14.9 79 79 NW 9 15 29.74 1007 10 16.0934 0 0
10:55 am 10:55 Partly Cloudy 66 18.9 58 14.7 77 77 W 10 17 29.74 1007 10 16.0934 0 0
11:15 am 11:15 Mostly Cloudy 66 19 58 14.5 75 75 WNW 14 22 29.74 1007 10 16.0934 0 0
11:35 am 11:35 Cloudy 65 18.3 58 14.5 79 79 NW 17 28 29.8 1009 10 16.0934 0 0
11:55 am 11:55 Cloudy 66 19.1 58 14.7 76 76 NW 16 26 29.77 1008 10 16.0934 0 0
12:15 pm 12:15 Cloudy 67 19.5 58 14.3 72 72 NNW 14 22 29.77 1008 10 16.0934 0 0
12:35 pm 12:35 Cloudy 67 19.5 58 14.2 72 72 NNW 17 28 29.77 1008 10 16.0934 0 0
12:55 pm 12:55 Cloudy 67 19.6 58 14.2 71 71 NNW 15 24 29.77 1008 10 16.0934 0 0
1:15 pm 13:15 Mostly Cloudy 68 20.2 57 14 68 68 NNW 14 22 29.77 1008 10 16.0934 0 0
1:35 pm 13:35 Mostly Cloudy 70 21.2 57 13.8 63 63 NNW 16 26 29.74 1007 10 16.0934 0 0
1:55 pm 13:55 Partly Cloudy 71 21.7 56 13.3 59 59 NNW 16 26 29.71 1006 10 16.0934 0 0
2:15 pm 14:15 Sunny 72 22.3 55 12.8 55 55 NNW 18 30 29.71 1006 10 16.0934 0 0
2:35 pm 14:35 Sunny 73 23 54 12 50 50 NNW 15 24 29.71 1006 10 16.0934 0 0
2:55 pm 14:55 Sunny 74 23.5 52 11.3 46 46 N 16 26 29.71 1006 10 16.0934 0 0
3:15 pm 15:15 Sunny 75 23.7 51 10.7 44 44 NW 18 30 29.71 1006 10 16.0934 0 0
3:35 pm 15:35 Sunny 75 24.1 51 10.4 42 42 N 17 28 29.71 1006 10 16.0934 0 0
3:55 pm 15:55 Sunny 76 24.3 49 9.7 40 40 NNW 18 30 29.71 1006 10 16.0934 0 0
4:15 pm 16:15 Sunny 77 24.8 47 8.6 36 36 N 15 24 29.71 1006 10 16.0934 0 0
4:35 pm 16:35 Sunny 76 24.7 47 8.5 36 36 N 17 28 29.71 1006 10 16.0934 0 0
4:55 pm 16:55 Sunny 77 25 45 7.2 32 32 N 17 28 29.71 1006 10 16.0934 0 0
5:15 pm 17:15 Sunny 78 25.5 38 3.6 24 24 NNW 16 26 29.71 1006 10 16.0934 0 0
5:35 pm 17:35 Sunny 77 25 38 3.2 24 24 N 17 28 29.74 1007 10 16.0934 0 0
5:55 pm 17:55 Sunny 76 24.3 38 3.6 26 26 NNW 16 26 29.74 1007 10 16.0934 0 0
6:15 pm 18:15 Sunny 75 24 37 2.5 25 25 NNW 20 31 29.77 1008 10 16.0934 0 0
6:35 pm 18:35 Sunny 74 23.5 34 1.1 23 23 NNW 17 28 29.77 1008 10 16.0934 0 0
6:55 pm 18:55 Sunny 73 22.6 32 0.2 23 23 NNW 16 26 29.77 1008 10 16.0934 0 0
7:15 pm 19:15 Sunny 73 22.8 32 0 22 22 NNW 16 26 29.8 1009 10 16.0934 0 0
7:35 pm 19:35 Sunny 72 22 32 0 23 23 NNW 14 22 29.83 1010 10 16.0934 0 0
7:55 pm 19:55 Sunny 68 20.2 31 -0.4 25 25 NNW 10 17 29.83 1010 10 16.0934 0 0
8:15 pm 20:15 Sunny 64 17.8 32 0.1 30 30 NNW 8 13 29.85 1011 10 16.0934 0 0
8:35 pm 20:35 Clear 60 15.7 34 1 37 37 NW 10 17 29.85 1011 10 16.0934 0 0
8:55 pm 20:55 Clear 57 14 34 1.3 42 42 NNW 10 17 29.91 1013 10 16.0934 0 0
9:15 pm 21:15 Clear 54 12.4 36 2 49 49 NW 10 17 29.94 1014 10 16.0934 0 0
9:35 pm 21:35 Clear 55 12.5 35 1.9 49 49 NNW 10 17 29.97 1015 10 16.0934 0 0
9:55 pm 21:55 Clear 59 15 36 2.1 42 42 N 14 22 29.94 1014 10 16.0934 0 0
10:15 pm 22:15 Clear 59 15 44 6.6 57 57 NNE 16 26 29.94 1014 10 16.0934 0 0
10:35 pm 22:35 Clear 58 14.4 46 8 66 66 NNE 12 19 29.97 1015 10 16.0934 0 0
10:55 pm 22:55 Clear 57 13.8 47 8.1 69 69 NNE 15 24 29.97 1015 10 16.0934 0 0
11:15 pm 23:15 Clear 56 13.2 46 8 71 71 NNE 12 19 29.97 1015 10 16.0934 0 0
11:35 pm 23:35 Clear 55 12.7 46 7.8 72 72 NNE 12 19 30 1016 10 16.0934 0 0
11:55 pm 23:55 Clear 54 12.3 46 7.6 73 73 NNE 13 20 30 1016 10 16.0934 0 0

Powered by AerisWeather